Home > Time Zones > World Clock > Weather > Togo > Lome > Past weeks

Flag for Togo Weather past 2 weeks in Lome, Togo

Now
77 °F

Broken clouds.


Feels Like: 78 °F
Forecast: N/A
Wind: 13 mph from Southwest

Location: Lome Airport

Current Time: Jul 25, 2014 at 6:39:59 PM

Latest Report: Jul 25, 2014 at 6:00 PM


Visibility: N/A

Pressure: 29.95 "Hg

Humidity: 89%

Dew point: 73 °F

Location of LomeLocation

Historic Weather in Lome — Graph

°F

Lome temperature yesterday

Maximum temperature yesterday: 82 °F (at 12:30 PM)
Minimum temperature yesterday: 75 °F (at 2:00 AM)
Average temperature yesterday: 78 °F

Past Weeks' High & Low Weather Summary

 TemperatureHumidityPressure
High86 °F (Jul 11, 1:00 PM)100% (Jul 16, 4:30 AM)30.07 "Hg (Jul 16, 4:30 AM)
Low72 °F (Jul 16, 4:30 AM)62% (Jul 12, 11:00 AM)29.86 "Hg (Jul 15, 4:00 PM)
Average79 °F85%29.99 "Hg
* Reported Jul 10 5:00 PM — Jul 25 5:30 PM, Lome, Weather by CustomWeather, © 2014

Note: Actual official high and low records may vary slightly from our data, if they occured in-between our weather recording intervals... More about our weather records

Advertising

Lome weather history for previous 24 hours

 ConditionsComfort  
Time TempWeatherWind HumidityBarometerVisibility
5:30 PM
Jul 25
79 °FBroken clouds.12 mph84%29.95 "HgN/A
5:00 PM79 °FBroken clouds.13 mph84%29.95 "HgN/A
4:30 PM79 °FScattered clouds.15 mph84%29.92 "HgN/A
4:00 PM79 °FBroken clouds.14 mph84%29.92 "HgN/A
3:30 PM79 °FBroken clouds.16 mph89%29.95 "HgN/A
3:00 PM81 °FScattered clouds.15 mph79%29.92 "HgN/A
2:30 PM81 °FScattered clouds.14 mph84%29.95 "HgN/A
2:00 PM81 °FScattered clouds.15 mph84%29.95 "HgN/A
1:30 PM82 °FScattered clouds.15 mph79%29.95 "HgN/A
1:00 PM82 °FScattered clouds.14 mph79%29.95 "HgN/A
12:30 PM81 °FBroken clouds.14 mph84%29.98 "HgN/A
12:00 PM82 °FBroken clouds.14 mph79%29.98 "HgN/A
11:30 AM81 °FBroken clouds.14 mph79%30.01 "HgN/A
11:00 AM81 °FBroken clouds.14 mph79%30.01 "HgN/A
10:30 AM79 °FBroken clouds.15 mph84%30.01 "HgN/A
10:00 AM81 °FBroken clouds.13 mph79%30.01 "HgN/A
9:30 AM79 °FBroken clouds.7 mph84%30.01 "Hg5 mi
9:00 AM77 °FBroken clouds.6 mph89%30.01 "Hg5 mi
8:30 AM77 °FBroken clouds.7 mph89%30.01 "Hg5 mi
8:00 AM77 °FBroken clouds.7 mph89%30.01 "Hg5 mi
7:30 AM77 °FBroken clouds.7 mph89%30.01 "Hg5 mi
7:00 AM75 °FBroken clouds.6 mph94%30.01 "Hg5 mi
6:48 AM75 °FBroken clouds.5 mph94%30.01 "Hg5 mi
6:30 AM75 °FPartly sunny.5 mph94%29.98 "Hg5 mi
6:00 AM75 °FPartly sunny.5 mph94%29.98 "Hg5 mi
5:30 AM75 °FPassing clouds.5 mph94%29.98 "Hg5 mi
5:00 AM75 °FPassing clouds.7 mph94%29.98 "Hg5 mi
4:30 AM75 °FPartly cloudy.3 mph94%29.98 "HgN/A
4:00 AM75 °FPartly cloudy.3 mph94%29.98 "HgN/A
3:30 AM75 °FPartly cloudy.6 mph94%29.98 "HgN/A
3:00 AM75 °FPartly cloudy.8 mph94%29.98 "HgN/A
2:30 AM75 °FPassing clouds.8 mph94%29.95 "HgN/A
2:00 AM77 °FPassing clouds.10 mph89%29.95 "HgN/A
1:00 AM77 °FPassing clouds.9 mph89%29.98 "HgN/A
12:30 AM77 °FPassing clouds.12 mph89%29.98 "HgN/A
12:00 AM77 °FPassing clouds.10 mph89%29.98 "HgN/A
11:30 PM
Jul 24
77 °FPassing clouds.13 mph89%29.98 "HgN/A
11:00 PM77 °FPassing clouds.12 mph89%30.01 "HgN/A
10:30 PM77 °FPassing clouds.12 mph89%30.01 "HgN/A
10:00 PM77 °FPartly cloudy.10 mph94%30.01 "HgN/A
9:30 PM79 °FPassing clouds.14 mph84%30.01 "HgN/A
9:00 PM79 °FPassing clouds.14 mph84%30.01 "HgN/A
8:30 PM79 °FPassing clouds.13 mph84%29.98 "HgN/A
8:00 PM77 °FPassing clouds.12 mph94%29.98 "HgN/A
7:30 PM79 °FPassing clouds.15 mph84%29.98 "HgN/A
7:00 PM79 °FPassing clouds.15 mph84%29.95 "HgN/A
6:30 PM79 °FPartly cloudy.13 mph89%29.95 "HgN/A
6:00 PM79 °FScattered clouds.14 mph89%29.95 "HgN/A
Weather by CustomWeather, © 2014

See weather overviewHow to use our weather pages